Location: Chakepay
(13.3931°S, 72.1925°W)
Time: 04:37:53
(UTC+00:00)

ATLAS 5 CENTAUR R/B - Pass Details

Date: 15 November 2019
Orbit: 563 x 1096 km, 63.3° (Epoch: 29 November)

Event Time Altitude Azimuth Distance (km) Brightness Sun altitude
Rises 00:55:20 0° 341° (NNW) 3,811 5.5 -27.6°
Reaches altitude 10° 00:57:56 10° 343° (NNW) 2,897 4.8 -28.2°
Enters shadow 00:59:02 15° 344° (NNW) 2,526 4.5 -28.4°
Exits shadow 01:06:43 53° 134° (SE) 1,326 3.0 -30.0°
Drops below altitude 10° 01:11:58 10° 151° (SSE) 2,911 5.0 -31.1°
Sets 01:14:36 0° 152° (SSE) 3,830 5.7 -31.6°
